[[{"header":{"parameterUnit":"m.s-1","parameterCategory":1,"la1":30.2991,"la2":30.254,"lo1":-89.0895,"lo2":-89.0444,"dy":0.0017,"dx":0.0017,"nx":28,"ny":28,"refTime":"2025-03-28T09:00:00:Z","depth":0,"parameterNumber":2,"parameterNumberName":"U-component_of_WINDS"},"data":[0,0,0,0,0,0,0,0,0,0,0,0,0,0,0,0,0,0,0,0,0,0,0,0,0,0,0,0,0,0,0,0,0,0,0,0,0,0,0,0,0,0,0,0,0,0,0,0,0,0,0,0,0,0,0,0,0,0,-6.966,-6.9661,0,-6.9758,-6.9759,-6.976,-6.9728,-6.9726,-6.9724,-6.9722,-6.9817,-6.9821,-6.9825,0,0,0,0,0,0,0,0,0,0,0,0,0,-6.9444,-6.9448,-6.966,-6.9661,-6.9663,-6.9757,-6.9759,-6.976,-6.9729,-6.9726,-6.9724,-6.9721,-6.9815,-6.9821,-6.9826,0,0,0,0,0,0,0,0,0,0,0,0,0,-6.9539,-6.9449,-6.966,-6.9659,-6.9659,-6.9757,-6.9759,-6.976,-6.9729,-6.9726,-6.9723,-6.972,-6.9814,-6.982,-6.9827,-6.993,0,0,-6.9847,-6.985,0,0,0,0,0,0,0,0,-6.9534,-6.9547,-6.9658,-6.9659,-6.966,-6.9728,-6.9717,-6.9817,-6.973,-6.9702,-6.9722,-6.9718,-6.9789,-6.9798,-6.9823,-6.9935,-6.9939,-6.9848,-6.9852,-6.9855,-6.9856,0,0,0,0,0,0,0,-6.9527,-6.9542,-6.9699,-6.9659,-6.9661,-6.9652,-6.9662,-6.9736,-6.9762,-6.9705,-6.9703,-6.9715,-6.9789,-6.9816,-6.9825,-6.994,-6.9847,-6.9853,-6.9858,-6.986,-7.0142,-7.0145,0,0,0,0,0,0,-6.952,-6.9537,-6.9695,-6.9701,-6.9588,-6.9658,-6.967,-6.9709,-6.9761,-6.9766,-6.9717,-6.9713,-6.9806,-6.9817,-6.9828,-6.9952,-6.9855,-6.9861,-6.9865,-7.0139,-7.0143,-7.0146,0,0,0,0,0,0,-6.9516,-6.9535,-6.9692,-6.9619,-6.9638,-6.9665,-6.971,-6.9713,-6.9739,-6.9771,-6.9775,-6.974,-6.9804,-6.9818,-6.9905,-6.9955,-6.9864,-6.987,-7.0134,-7.014,-7.0145,-7.0201,0,0,0,0,0,0,-6.951,-6.9533,-6.9573,-6.962,-6.9642,-6.9768,-6.9713,-6.9717,-6.9752,-6.9747,-6.9793,-6.9798,-6.9803,-6.9896,-6.9912,-6.9962,-6.9875,-7.013,-7.0137,-7.0143,-7.0195,-7.0207,-7.0218,0,0,0,0,0,-6.9502,-6.9584,-6.9576,-6.9595,-6.9693,-6.9771,-6.9784,-6.9789,-6.9756,-6.9796,-6.9816,-6.9797,-6.9948,-6.9905,-6.9923,-6.9976,-7.0127,-7.0135,-7.0142,-7.0189,-7.0205,-7.0218,0,0,0,0,0,0,-6.954,-6.959,-6.9581,-6.9681,-6.9723,-6.9766,-6.9816,-6.9805,-6.9856,-6.9849,-6.9852,-6.9863,-6.9952,-6.9973,-6.9925,-7.0079,-7.0032,-7.0044,-7.0061,-7.0076,-7.0088,-7.0079,-6.9881,0,0,0,0,0,-6.9561,-6.9621,-6.9661,-6.9746,-6.9767,-6.9789,-6.9823,-6.9824,-6.9866,-6.9883,-6.9909,-6.995,-7.0006,-7.0043,-7.0097,-7.0199,-7.0208,-7.0244,-7.0256,-7.0266,-7.0275,-7.033,-7.0346,-7.0172,-7.0172,-7.0172,0,0,-6.9603,-6.9638,-6.9675,-6.9754,-6.9786,-6.9848,-6.9803,-6.987,-6.9915,-6.9892,-6.9976,-6.9997,-7.0043,-7.0138,-7.0181,-7.0158,-7.0326,-7.0276,-7.0283,-7.0287,-7.0339,-7.0356,-7.037,-7.0177,-7.0177,-7.0176,0,0,-6.971,-6.9744,-6.9817,-6.9851,-6.9901,-6.9915,-6.9934,-6.998,-6.9993,-7.0078,-7.0062,-7.0116,-7.0213,-7.0246,-7.0276,-7.0399,-7.0382,-7.0417,-7.0476,-7.053,-7.0544,-7.0556,-7.0598,-7.0613,-7.0426,-7.0426,-7.0426,0,-6.9755,-6.9848,-6.9856,-6.9925,-6.9959,-6.9945,-7.0019,-7.0051,-7.0115,-7.0139,-7.0114,-7.0237,-7.0266,-7.0368,-7.0399,-7.0424,-7.0443,-7.0409,-7.0542,-7.0554,-7.0565,-7.0605,-7.0621,-7.043,-7.043,-7.0429,-7.0429,0,-6.99,-6.9965,-7.0019,-7.0084,-7.0125,-7.0196,-7.0214,-7.0254,-7.0253,-7.027,-7.0356,-7.0392,-7.0452,-7.0478,-7.0476,-7.058,-7.0564,-7.0541,-7.0492,-7.0585,-7.0623,-7.0638,-7.0435,-7.0434,-7.0433,-7.0432,0,0,-7.003,-7.0101,-7.012,-7.015,-7.0205,-7.0255,-7.0326,-7.0387,-7.0421,-7.0467,-7.0525,-7.061,-7.0589,-7.0622,-7.0625,-7.0672,-7.0766,-7.0643,-7.0644,-7.0662,-7.0881,-7.0896,-7.0914,-7.0757,-7.076,-7.0762,-7.0876,0,-7.0141,-7.0266,-7.0276,-7.0388,-7.0448,-7.0436,-7.0498,-7.0538,-7.0556,-7.0609,-7.0628,-7.0687,-7.0656,-7.0676,-7.0723,-7.0744,-7.0809,-7.0737,-7.0808,-7.0811,-7.0794,-7.0934,-7.095,-7.1056,-7.0891,-7.0894,-7.0896,0,-7.0285,-7.0337,-7.0456,-7.0504,-7.0529,-7.0584,-7.0642,-7.0693,-7.0738,-7.0748,-7.0788,-7.0784,-7.0855,-7.0808,-7.0906,-7.0857,-7.0887,-7.0902,-7.0907,-7.0911,-7.0856,-7.0939,-7.109,-7.1105,-7.0919,-7.0917,-7.0916,0,-7.0365,-7.0466,-7.0549,-7.0575,-7.0634,-7.0673,-7.0699,-7.0742,-7.0778,-7.0829,-7.0852,-7.091,-7.0941,-7.0985,-7.0997,-7.0962,-7.1094,-7.1048,-7.1102,-7.1102,-7.1127,-7.1125,-7.1282,-7.1152,-7.1152,-7.1152,-7.1152,0,-7.0486,-7.0558,-7.0587,-7.0638,-7.0718,-7.073,-7.0809,-7.0833,-7.0872,-7.0926,-7.0921,-7.0972,-7.0986,-7.104,-7.105,-7.1128,-7.1143,-7.1151,-7.1152,-7.115,-7.1149,-7.1168,-7.1159,-7.1156,-7.1155,-7.1154,-7.1154,0,-7.0587,-7.061,-7.07,-7.075,-7.0764,-7.0821,-7.0863,-7.0912,-7.0931,-7.1,-7.1017,-7.1046,-7.1109,-7.1126,-7.1201,-7.1208,-7.13,-7.1295,-7.1284,-7.1283,-7.1336,-7.133,-7.1508,-7.1531,-7.1389,-7.139,-7.1392,0,-7.0661,-7.0717,-7.0773,-7.0811,-7.0839,-7.0899,-7.0937,-7.0951,-7.0991,-7.1048,-7.109,-7.1153,-7.1203,-7.1304,-7.1331,-7.1388,-7.1384,-7.1443,-7.1392,-7.1388,-7.1382,-7.1377,-7.1382,-7.1451,-7.1452,-7.1453,-7.1454,0,-7.0789,-7.0798,-7.0854,-7.0914,-7.096,-7.1008,-7.1053,-7.1084,-7.1105,-7.115,-7.1215,-7.1255,-7.1333,-7.1394,-7.1453,-7.1478,-7.1469,-7.1471,-7.1486,-7.1482,-7.1473,-7.1477,-7.1307,-7.1466,-7.1464,-7.1464,-7.1463,-7.1463,-7.0877,-7.0926,-7.0974,-7.1036,-7.1073,-7.1117,-7.1165,-7.1191,-7.1246,-7.1312,-7.1317,-7.1388,-7.1433,-7.1511,-7.154,-7.1594,-7.1577,-7.1599,-7.1604,-7.1609,-7.1612,-7.1467,-7.1605,-7.1605,-7.1605,-7.1605,-7.1604,0,-7.1003,-7.1034,-7.1092,-7.1157,-7.1206,-7.1197,-7.1247,-7.1288,-7.1351,-7.1395,-7.1446,-7.1521,-7.1581,-7.1614,-7.1674,-7.1711,-7.1709,-7.1726,-7.1722,-7.1728,-7.1626,-7.1606,-7.1727,-7.1727,-7.1727,-7.1727,-7.1727,-7.1727,-7.1074,-7.1156,-7.1171,-7.1271,-7.1301,-7.1371,-7.1401,-7.1441,-7.1476,-7.156,-7.1611,-7.1633,-7.1672,-7.1736,-7.179,-7.1798,-7.1819,-7.1839,-7.1844,-7.1748,-7.1735,-7.1723,-7.1704,-7.1844,-7.1844,-7.1942,-7.1942,-7.1943]},{"header":{"parameterUnit":"m.s-1","parameterCategory":1,"la1":30.2991,"la2":30.254,"lo1":-89.0895,"lo2":-89.0444,"dy":0.0017,"dx":0.0017,"nx":28,"ny":28,"refTime":"2025-03-28T09:00:00:Z","depth":0,"parameterNumber":3,"parameterNumberName":"V-component_of_WINDS"},"data":[0,0,0,0,0,0,0,0,0,0,0,0,0,0,0,0,0,0,0,0,0,0,0,0,0,0,0,0,0,0,0,0,0,0,0,0,0,0,0,0,0,0,0,0,0,0,0,0,0,0,0,0,0,0,0,0,0,0,6.0797,6.0798,0,6.0903,6.0904,6.0905,6.0899,6.0898,6.0896,6.0895,6.0997,6.1001,6.1005,0,0,0,0,0,0,0,0,0,0,0,0,0,6.0584,6.0588,6.0797,6.0798,6.0799,6.0903,6.0904,6.0906,6.0899,6.0898,6.0896,6.0894,6.0996,6.1001,6.1006,0,0,0,0,0,0,0,0,0,0,0,0,0,6.0682,6.059,6.0796,6.0809,6.0811,6.0902,6.0904,6.0906,6.09,6.0898,6.0895,6.0893,6.0994,6.1,6.1006,6.109,0,0,6.1025,6.1028,0,0,0,0,0,0,0,0,6.0676,6.069,6.0806,6.0808,6.0811,6.0886,6.0867,6.0968,6.09,6.0866,6.0895,6.0892,6.0961,6.097,6.0995,6.1095,6.11,6.1026,6.103,6.1032,6.1034,0,0,0,0,0,0,0,6.067,6.0685,6.0838,6.0807,6.081,6.0808,6.0819,6.0886,6.0925,6.0869,6.0869,6.0882,6.0962,6.0989,6.0997,6.1101,6.1026,6.1031,6.1035,6.1038,6.1278,6.128,0,0,0,0,0,0,6.0661,6.068,6.0835,6.0842,6.0737,6.0813,6.0826,6.0864,6.0924,6.0931,6.0883,6.0881,6.0979,6.099,6.1001,6.1105,6.1032,6.1038,6.1042,6.1275,6.1278,6.1281,0,0,0,0,0,0,6.0656,6.0675,6.0831,6.0761,6.078,6.082,6.0862,6.0867,6.0894,6.0935,6.0942,6.0904,6.0978,6.0992,6.1069,6.1109,6.1041,6.1047,6.1272,6.1276,6.128,6.1313,0,0,0,0,0,0,6.065,6.0673,6.0706,6.0762,6.0784,6.0899,6.0864,6.0871,6.0905,6.0903,6.0956,6.0963,6.0977,6.106,6.1075,6.1116,6.1051,6.1269,6.1274,6.1279,6.1309,6.1318,6.1325,0,0,0,0,0,6.0643,6.071,6.0708,6.0727,6.0827,6.0901,6.0914,6.0931,6.0908,6.0942,6.0969,6.0961,6.1102,6.1068,6.1085,6.1128,6.1266,6.1272,6.1278,6.1305,6.1316,6.1325,0,0,0,0,0,0,6.0655,6.0717,6.0716,6.0803,6.0847,6.09,6.0942,6.0942,6.0991,6.0987,6.1004,6.1016,6.1094,6.1118,6.108,6.1214,6.1181,6.1191,6.1195,6.1206,6.1214,6.1207,6.1057,0,0,0,0,0,6.0668,6.0725,6.0775,6.0847,6.087,6.0902,6.0935,6.0945,6.0991,6.1008,6.1041,6.1084,6.1138,6.1173,6.1225,6.1312,6.1324,6.135,6.1358,6.1365,6.1374,6.1423,6.1436,6.1301,6.1301,6.1301,0,0,6.0695,6.0736,6.077,6.0851,6.0886,6.0944,6.0918,6.0979,6.1022,6.1017,6.1093,6.1119,6.1168,6.1251,6.1289,6.1273,6.1414,6.1373,6.1378,6.1383,6.1431,6.1444,6.1455,6.1305,6.1304,6.1304,0,0,6.0775,6.0811,6.0876,6.0913,6.0968,6.099,6.1006,6.1059,6.1077,6.1154,6.1153,6.1203,6.1295,6.1331,6.1361,6.1457,6.1452,6.1473,6.1517,6.1566,6.1576,6.1586,6.1622,6.1634,6.1481,6.1481,6.1481,0,6.0801,6.089,6.0909,6.0973,6.1008,6.101,6.1076,6.1109,6.1178,6.1202,6.1184,6.1302,6.1335,6.1428,6.1452,6.1475,6.1494,6.1467,6.1574,6.1583,6.1592,6.1627,6.164,6.1484,6.1483,6.1483,6.1483,0,6.092,6.0982,6.1027,6.1097,6.1137,6.1201,6.123,6.1268,6.1275,6.1299,6.1378,6.1418,6.1479,6.1501,6.1507,6.1595,6.1585,6.157,6.1537,6.1607,6.164,6.1653,6.1487,6.1486,6.1486,6.1485,0,0,6.1009,6.1091,6.1108,6.114,6.1202,6.1249,6.1313,6.1376,6.141,6.1457,6.1511,6.1591,6.1579,6.1613,6.1623,6.1665,6.1741,6.1646,6.1647,6.1664,6.1843,6.1854,6.1869,6.1738,6.1741,6.1743,6.1839,0,6.1096,6.1213,6.1234,6.1335,6.1393,6.1396,6.1452,6.1495,6.1519,6.1571,6.1596,6.1653,6.1632,6.1653,6.1695,6.1723,6.1778,6.1716,6.1789,6.1791,6.1778,6.1886,6.1898,6.1987,6.1852,6.1854,6.1856,0,6.1213,6.1267,6.1375,6.1432,6.1457,6.1508,6.1568,6.1617,6.1667,6.1681,6.1721,6.1727,6.1793,6.1758,6.185,6.1808,6.1838,6.1857,6.1861,6.1869,6.1828,6.1898,6.2016,6.2029,6.1876,6.1874,6.1873,0,6.127,6.1369,6.1447,6.1475,6.1542,6.1578,6.1608,6.1655,6.1692,6.1744,6.1769,6.1826,6.1858,6.1902,6.1923,6.1895,6.2014,6.198,6.2028,6.2028,6.2053,6.2052,6.2179,6.2071,6.2071,6.2071,6.2071,0,6.1365,6.1432,6.1474,6.1522,6.1597,6.162,6.1693,6.1721,6.1764,6.1817,6.1822,6.1871,6.1896,6.1948,6.1965,6.2039,6.2053,6.2066,6.207,6.2067,6.2065,6.2088,6.2083,6.2074,6.2074,6.2073,6.2072,0,6.1441,6.1472,6.1558,6.1616,6.1633,6.1685,6.1735,6.1781,6.1806,6.1873,6.189,6.1928,6.1991,6.2016,6.2092,6.2103,6.2189,6.2187,6.2174,6.2175,6.2223,6.2218,6.2369,6.2391,6.2268,6.2269,6.227,0,6.1501,6.1553,6.1618,6.1655,6.1687,6.1746,6.1785,6.1809,6.1849,6.1912,6.1951,6.2014,6.2067,6.2167,6.22,6.2258,6.2259,6.2308,6.2267,6.2263,6.2262,6.2259,6.2265,6.2315,6.2317,6.2318,6.2318,0,6.1604,6.1618,6.1675,6.1739,6.1786,6.1836,6.1885,6.1915,6.1946,6.1991,6.2057,6.2098,6.2177,6.2241,6.2302,6.233,6.233,6.2331,6.2346,6.2343,6.2334,6.2341,6.2195,6.2327,6.2326,6.2326,6.2325,6.2325,6.1675,6.1722,6.1777,6.1841,6.1881,6.1927,6.1975,6.2007,6.2063,6.2132,6.2142,6.2213,6.2262,6.2345,6.2376,6.2431,6.2418,6.2439,6.2444,6.2449,6.2454,6.2325,6.2442,6.2441,6.2441,6.2441,6.2441,0,6.178,6.1816,6.1875,6.1945,6.1996,6.1994,6.2048,6.209,6.2153,6.2201,6.2253,6.233,6.2392,6.2431,6.2493,6.253,6.2531,6.2545,6.2543,6.255,6.246,6.2443,6.2543,6.2543,6.2543,6.2543,6.2543,6.2543,6.1841,6.1922,6.1942,6.2043,6.2078,6.215,6.2181,6.2224,6.2262,6.2349,6.2401,6.2427,6.2471,6.2537,6.2594,6.2604,6.2627,6.2642,6.2651,6.2567,6.2556,6.2546,6.253,6.2647,6.2647,6.2737,6.2738,6.2738]}]]